Find Kosmos-2117

NORAD ID: 21031 Int'l Des: 1990-114 Owner: UNKS Country: SU operational
LEOCIRCULARPOLAR

Current View

Loading 3D Globe...

About Kosmos-2117

Kosmos-2117 (NORAD 21031) is a satellite launched Dec 22, 1990 by UNKS of SU. It operates in LEO, CIRCULAR, POLAR orbit with a mass of 225.00 kg.

Upcoming Passes

Passes for default location (London). Set your location on the main map for personalized predictions.

Altitude History

Loading altitude history...

Two-Line Element Set

1 21031U 90114D 26194.46026171 .00000016 00000-0 26230-4 0 9995
2 21031 82.5747 180.4934 0008499 16.9475 102.8508 12.65032287641598
Epoch: Jul 13, 2026 • Age: 19 hours

Current Status

Altitude 1414.6 km
Apogee / Perigee N/A
Velocity 7.16 km/s
Sub-Earth Point 68.16°N, 40.7°W
Launch Date Dec 22, 1990
Age 35.5 years
Type other

Technical Details

Classification Payload
Mass 225.00 kg
Dry Mass 225.00 kg
Total Mass 225.00 kg
Length 1.60 m
Diameter 0.80 m
Span 7.00 m
Shape Cyl + Ant
Manufacturer NPOPM
Bus Type Strela-3
Phase Status In Orbit
Owner/State UNKS/SU

Most Searched